Belmar-Farmingdale, NJ

4:03 AM EST on December 10, 2019 (GMT -0500)
Allaire

Weather History for KBLM - October, 2019

Change the Weather History Date:

Thursday, October 31, 2019

  Actual Average Record
Temperature  
Mean Temperature 66 °F -  
Max Temperature 73 °F 56 °F 73 °F (1999)
Min Temperature 60 °F 41 °F 30 °F (2008)
Cooling Degree Days 2    
Growing Degree Days 16 (Base 50)    
Moisture  
Dew Point 65 °F    
Average Humidity 93    
Maximum Humidity 100    
Minimum Humidity 83    
Precipitation  
Precipitation 0.05 in - - ()
Sea Level Pressure  
Sea Level Pressure 29.91 in    
Wind  
Wind Speed 9 mph ()    
Max Wind Speed 22 mph    
Max Gust Speed 40 mph    
Visibility 9.1 miles    
Events Fog , Rain    
Averages and records for this station are not official NWS values.
T = Trace of Precipitation, MM = Missing Value Source: Averaged Metar Reports

Daily Weather History Graph

Daily Weather History Graph

Search for Another Location

Airport or City:

Astronomy

Oct. 31, 2019 Rise Set
Actual Time 7:24 AM EDT 5:55 PM EDT
Civil Twilight 6:56 AM EDT 6:23 PM EDT
Nautical Twilight 6:24 AM EDT 6:55 PM EDT
Astronomical Twilight 5:52 AM EDT 7:26 PM EDT
Moon 11:10 AM EDT (10/31) 8:49 PM EDT (10/31)
Length of Visible Light 11h 26m
Length of Day
10h 30m
Waxing Crescent, 15% of the Moon is Illuminated
Oct 31
Waxing Crescent
Nov 4
First Quarter
Nov 12
Full
Nov 19
Last Quarter
Nov 26
New

Hourly Weather History & Observations

Time (EDT) Temp. Dew Point Humidity Pressure Visibility Wind Dir Wind Speed Gust Speed Precip Events Conditions
12:20 AM 62.6 °F 60.8 °F 94% 30.11 in 0.5 mi South 4.6 mph - N/A Fog Fog
12:30 AM 62.6 °F 60.8 °F 94% 30.12 in 1.0 mi South 6.9 mph - N/A   Overcast
12:35 AM 62.6 °F 60.8 °F 94% 30.12 in 2.0 mi SSW 6.9 mph - N/A   Overcast
12:43 AM 62.6 °F 62.6 °F 100% 30.12 in 6.0 mi SSW 6.9 mph - 0.00 in Rain Light Rain
12:56 AM 62.1 °F 62.1 °F 100% 30.12 in 7.0 mi SSW 3.5 mph - 0.01 in Rain Light Rain
1:56 AM 61.0 °F 61.0 °F 100% 30.09 in 10.0 mi SSE 4.6 mph - 0.01 in Rain Light Rain
2:56 AM 61.0 °F 60.1 °F 97% 30.06 in 10.0 mi SE 4.6 mph - 0.00 in Rain Light Rain
3:40 AM 60.8 °F 60.8 °F 100% 30.04 in 10.0 mi SE 5.8 mph - 0.01 in   Overcast
3:56 AM 61.0 °F 60.1 °F 97% 30.03 in 10.0 mi SE 6.9 mph - 0.01 in   Overcast
4:05 AM 60.8 °F 60.8 °F 100% 30.03 in 10.0 mi SE 6.9 mph - N/A   Overcast
4:24 AM 60.8 °F 60.8 °F 100% 30.02 in 10.0 mi SSE 5.8 mph - N/A   Overcast
4:54 AM 60.8 °F 60.8 °F 100% 30.02 in 10.0 mi SSE 5.8 mph - N/A   Overcast
4:56 AM 61.0 °F 60.1 °F 97% 30.02 in 10.0 mi SSE 6.9 mph - N/A   Overcast
5:28 AM 62.6 °F 62.6 °F 100% 30.01 in 10.0 mi SSE 6.9 mph - 0.00 in Rain Light Rain
5:56 AM 63.0 °F 62.1 °F 97% 30.01 in 10.0 mi South 5.8 mph - 0.00 in   Overcast
6:04 AM 62.6 °F 62.6 °F 100% 30.00 in 10.0 mi South 6.9 mph - N/A   Overcast
6:56 AM 64.9 °F 64.0 °F 97% 29.98 in 8.0 mi South 5.8 mph - N/A   Overcast
7:44 AM 66.2 °F 66.2 °F 100% 29.97 in 10.0 mi South 10.4 mph - 0.00 in Rain Light Rain
7:56 AM 66.9 °F 66.9 °F 100% 29.97 in 10.0 mi South 11.5 mph 19.6 mph 0.00 in Rain Light Rain
8:40 AM 68.0 °F 66.2 °F 94% 29.97 in 10.0 mi South 13.8 mph - 0.02 in Rain Light Rain
8:56 AM 68.0 °F 66.9 °F 96% 29.97 in 10.0 mi South 10.4 mph 18.4 mph 0.02 in   Overcast
9:56 AM 69.1 °F 66.9 °F 93% 29.96 in 10.0 mi South 12.7 mph 17.3 mph 0.00 in   Overcast
10:56 AM 71.1 °F 68.0 °F 90% 29.93 in 10.0 mi South 17.3 mph 27.6 mph N/A   Overcast
11:12 AM 71.6 °F 66.2 °F 83% 29.93 in 10.0 mi South 16.1 mph 27.6 mph N/A   Overcast
11:56 AM 72.0 °F 66.9 °F 84% 29.92 in 10.0 mi South 17.3 mph 29.9 mph N/A   Overcast
12:38 PM 71.6 °F 68.0 °F 88% 29.89 in 10.0 mi South 20.7 mph 31.1 mph N/A   Overcast
12:56 PM 72.0 °F 68.0 °F 87% 29.88 in 10.0 mi South 18.4 mph 27.6 mph N/A   Overcast
1:56 PM 72.0 °F 66.9 °F 84% 29.84 in 10.0 mi South 18.4 mph 27.6 mph N/A   Overcast
2:56 PM 73.0 °F 68.0 °F 84% 29.81 in 10.0 mi South 20.7 mph 33.4 mph N/A   Overcast
3:56 PM 71.1 °F 68.0 °F 90% 29.78 in 10.0 mi South 21.9 mph 32.2 mph N/A   Overcast
4:56 PM 70.0 °F 66.9 °F 90% 29.76 in 10.0 mi South 16.1 mph 32.2 mph N/A   Overcast
5:34 PM 69.8 °F 66.2 °F 88% 29.75 in 10.0 mi South 17.3 mph 27.6 mph N/A   Overcast
5:56 PM 70.0 °F 66.9 °F 90% 29.75 in 10.0 mi South 20.7 mph 31.1 mph N/A   Overcast
6:56 PM 70.0 °F 68.0 °F 93% 29.73 in 10.0 mi South 16.1 mph 28.8 mph N/A   Overcast
7:56 PM 70.0 °F 66.9 °F 90% 29.70 in 10.0 mi South 12.7 mph 25.3 mph N/A   Overcast
8:56 PM 70.0 °F 66.9 °F 90% 29.65 in 10.0 mi South 15.0 mph 26.5 mph N/A   Overcast
9:56 PM 71.1 °F 66.9 °F 87% 29.64 in 10.0 mi South 17.3 mph 31.1 mph N/A   Overcast
10:29 PM 71.6 °F 66.2 °F 83% 29.62 in 10.0 mi South 20.7 mph 40.3 mph N/A   Overcast
10:56 PM 72.0 °F 66.9 °F 84% 29.61 in 10.0 mi South 19.6 mph 29.9 mph N/A   Overcast
11:56 PM 72.0 °F 66.9 °F 84% 29.57 in 10.0 mi South 19.6 mph 34.5 mph N/A   Overcast